Lobo

Go HERE for most recent data if this page is not up to date.

Jump to table bottom
Date/Time Temp deg F RH % 24 Hr Snow (in) Snow Depth (in) H2O (in)
12/04 11:00 25.9 71 0.0 34.1 0.00
12/04 10:00 26.2 69 0.0 34.0 0.00
12/04 09:00 25.3 72 0.1 34.1 0.00
12/04 08:00 26.6 35 0.2 34.1 0.00
12/04 07:00 26.2 19 0.2 34.1 0.00
12/04 06:00 24.4 20 0.2 34.0 0.00
12/04 05:00 22.4 21 0.2 34.2 0.00
12/04 04:00 21.8 22 0.3 34.3 0.00
12/04 03:00 20.4 25 0.3 34.2 0.00
12/04 02:00 19.0 25 0.3 34.3 0.00
12/04 01:00 15.0 36 0.2 34.4 0.00
12/04 00:00 15.0 49 0.0 34.6 0.00
12/03 23:00 17.1 32 0.1 34.7 0.00
12/03 22:00 19.1 27 0.0 34.5 0.00
12/03 21:00 20.5 24 0.1 34.6 0.00
12/03 20:00 20.4 23 0.1 34.5 0.00
12/03 19:00 20.4 24 0.2 34.7 0.00
12/03 18:00 20.4 25 0.0 34.7 0.00
12/03 17:00 21.6 21 0.0 34.8 0.00
12/03 16:00 23.3 20 -0.0 34.7 0.00
12/03 15:00 24.5 19 -0.0 34.9 0.00
12/03 14:00 25.2 24 -0.2 34.9 0.00
12/03 13:00 26.0 23 -0.1 35.1 0.00
12/03 12:00 23.6 24 0.1 35.3 0.00
12/03 11:00 20.7 27 0.2 35.1 0.00
12/03 10:00 17.6 30 0.3 35.3 0.00
12/03 09:00 14.3 37 0.2 35.4 0.00
12/03 08:00 11.7 31 0.5 35.5 0.00
12/03 07:00 8.4 46 0.3 35.0 0.00
12/03 06:00 7.9 49 0.3 35.5 0.00
12/03 05:00 7.7 45 0.3 35.5 0.00
12/03 04:00 6.6 41 0.1 35.3 0.00
12/03 03:00 6.0 40 0.3 35.8 0.00
12/03 02:00 3.6 40 0.2 35.5 0.00
12/03 01:00 4.6 47 0.0 35.8 0.00
12/03 00:00 4.9 46 0.0 35.9 0.00
.